• en Belgique
  • Liste des pays
  • À 7 jours
  • Température de l'eau
  • Carte satellitaire
  • Carte météo
  • Widgets météo
  • user-avatar
    Se connecter

    Météo par heure à Iraklio

    Ce jour, 23 Octobre, Lundi

    Heure Température Précipitation Vent Pression Humidité
    00:00 +21°C° 0 mm 2 m/s 753 mmHg 69%
    01:00 +21°C° 0 mm 2 m/s 753 mmHg 69%
    02:00 +20°C° 0 mm 2 m/s 753 mmHg 69%
    03:00 +20°C° 0 mm 2 m/s 753 mmHg 69%
    04:00 +20°C° 0 mm 2 m/s 752 mmHg 69%
    05:00 +19°C° 0 mm 2 m/s 752 mmHg 69%
    06:00 +20°C° 0 mm 2 m/s 752 mmHg 66%
    07:00 +21°C° 0 mm 2 m/s 752 mmHg 63%
    08:00 +23°C° 0 mm 2 m/s 752 mmHg 60%
    09:00 +23°C° 0 mm 2 m/s 752 mmHg 57%
    10:00 +24°C° 0 mm 2 m/s 752 mmHg 54%
    11:00 +25°C° 0 mm 2 m/s 752 mmHg 52%
    12:00 +25°C° 0 mm 3 m/s 751 mmHg 54%
    13:00 +25°C° 0 mm 3 m/s 751 mmHg 56%
    14:00 +26°C° 0 mm 4 m/s 751 mmHg 59%
    15:00 +25°C° 0 mm 4 m/s 750 mmHg 63%
    16:00 +23°C° 0 mm 4 m/s 750 mmHg 67%
    17:00 +23°C° 0 mm 4 m/s 749 mmHg 71%
    18:00 +22°C° 0 mm 4 m/s 749 mmHg 74%
    19:00 +22°C° 0 mm 4 m/s 749 mmHg 76%
    20:00 +21°C° 0 mm 4 m/s 749 mmHg 79%
    21:00 +21°C° 0,1 mm 4 m/s 749 mmHg 80%
    22:00 +21°C° 0,1 mm 5 m/s 749 mmHg 81%
    23:00 +21°C° 0,1 mm 5 m/s 748 mmHg 82%

    Demain, 24 Octobre, Mardi

    Heure Température Précipitation Vent Pression Humidité
    00:00 +21°C° 0,1 mm 5 m/s 748 mmHg 81%
    01:00 +20°C° 0,1 mm 5 m/s 748 mmHg 81%
    02:00 +20°C° 0,1 mm 6 m/s 747 mmHg 81%
    03:00 +20°C° 0 mm 6 m/s 747 mmHg 78%
    04:00 +20°C° 0 mm 6 m/s 747 mmHg 76%
    05:00 +20°C° 0 mm 7 m/s 746 mmHg 73%
    06:00 +20°C° 0 mm 6 m/s 746 mmHg 71%
    07:00 +20°C° 0 mm 6 m/s 746 mmHg 69%
    08:00 +21°C° 0 mm 6 m/s 746 mmHg 67%
    09:00 +21°C° 0,1 mm 6 m/s 747 mmHg 64%
    10:00 +21°C° 0,1 mm 6 m/s 747 mmHg 62%
    11:00 +22°C° 0,1 mm 7 m/s 747 mmHg 59%
    12:00 +22°C° 0,2 mm 7 m/s 747 mmHg 56%
    13:00 +22°C° 0,2 mm 8 m/s 747 mmHg 52%
    14:00 +22°C° 0,2 mm 8 m/s 747 mmHg 49%
    15:00 +21°C° 0,1 mm 8 m/s 747 mmHg 53%
    16:00 +20°C° 0,1 mm 7 m/s 747 mmHg 57%
    17:00 +18°C° 0,1 mm 7 m/s 747 mmHg 61%
    18:00 +18°C° 0,1 mm 7 m/s 747 mmHg 64%
    19:00 +19°C° 0,1 mm 6 m/s 748 mmHg 66%
    20:00 +17°C° 0,1 mm 6 m/s 748 mmHg 68%
    21:00 +17°C° 0 mm 6 m/s 749 mmHg 69%
    22:00 +17°C° 0 mm 6 m/s 749 mmHg 69%
    23:00 +17°C° 0 mm 6 m/s 749 mmHg 70%

    Après-demain, 25 Octobre, Mercredi

    Heure Température Précipitation Vent Pression Humidité
    00:00 +17°C° 0 mm 5 m/s 749 mmHg 70%
    01:00 +16°C° 0 mm 5 m/s 749 mmHg 70%
    02:00 +16°C° 0 mm 5 m/s 749 mmHg 70%
    03:00 +16°C° 0 mm 5 m/s 749 mmHg 71%
    04:00 +17°C° 0 mm 4 m/s 749 mmHg 71%
    05:00 +17°C° 0 mm 4 m/s 749 mmHg 71%
    06:00 +17°C° 0 mm 4 m/s 750 mmHg 70%
    07:00 +18°C° 0 mm 4 m/s 750 mmHg 69%
    08:00 +18°C° 0 mm 3 m/s 750 mmHg 67%
    09:00 +18°C° 0 mm 3 m/s 751 mmHg 64%
    10:00 +19°C° 0 mm 3 m/s 751 mmHg 61%
    11:00 +20°C° 0 mm 3 m/s 752 mmHg 58%
    12:00 +20°C° 0 mm 3 m/s 752 mmHg 58%
    13:00 +20°C° 0 mm 3 m/s 752 mmHg 57%
    14:00 +21°C° 0 mm 3 m/s 752 mmHg 56%
    15:00 +20°C° 0 mm 2 m/s 752 mmHg 57%
    16:00 +20°C° 0 mm 2 m/s 753 mmHg 59%
    17:00 +21°C° 0 mm 1 m/s 753 mmHg 60%
    18:00 +20°C° 0 mm 1 m/s 754 mmHg 63%
    19:00 +20°C° 0 mm 1 m/s 754 mmHg 65%
    20:00 +19°C° 0 mm 2 m/s 755 mmHg 68%
    21:00 +19°C° 0 mm 2 m/s 755 mmHg 69%
    22:00 +19°C° 0 mm 2 m/s 755 mmHg 69%
    23:00 +18°C° 0 mm 2 m/s 756 mmHg 70%

    26 Octobre, Jeudi

    Heure Température Précipitation Vent Pression Humidité
    00:00 +19°C° 0 mm 1 m/s 756 mmHg 70%
    01:00 +19°C° 0 mm 1 m/s 756 mmHg 70%
    02:00 +19°C° 0 mm 1 m/s 756 mmHg 71%
    03:00 +18°C° 0,1 mm 2 m/s 756 mmHg 68%
    04:00 +18°C° 0,1 mm 2 m/s 756 mmHg 65%
    05:00 +19°C° 0,1 mm 3 m/s 757 mmHg 63%
    06:00 +19°C° 0,2 mm 3 m/s 757 mmHg 62%
    07:00 +20°C° 0,2 mm 3 m/s 757 mmHg 61%
    08:00 +20°C° 0,2 mm 3 m/s 758 mmHg 60%
    09:00 +21°C° 0,1 mm 3 m/s 758 mmHg 55%
    10:00 +22°C° 0,1 mm 4 m/s 759 mmHg 51%
    11:00 +23°C° 0,1 mm 4 m/s 759 mmHg 46%
    12:00 +23°C° 0,5 mm 4 m/s 759 mmHg 47%
    13:00 +23°C° 0,5 mm 4 m/s 759 mmHg 48%
    14:00 +23°C° 0,5 mm 5 m/s 758 mmHg 49%
    15:00 +23°C° 0,7 mm 5 m/s 758 mmHg 53%
    16:00 +22°C° 0,7 mm 5 m/s 759 mmHg 56%
    17:00 +21°C° 0,7 mm 5 m/s 759 mmHg 60%
    18:00 +21°C° 0,2 mm 5 m/s 759 mmHg 63%
    19:00 +20°C° 0,2 mm 5 m/s 759 mmHg 67%
    20:00 +20°C° 0,2 mm 5 m/s 759 mmHg 71%
    21:00 +20°C° 0,1 mm 5 m/s 759 mmHg 72%
    22:00 +19°C° 0,1 mm 5 m/s 759 mmHg 73%
    23:00 +19°C° 0,1 mm 5 m/s 759 mmHg 73%

    27 Octobre, Vendredi

    Heure Température Précipitation Vent Pression Humidité
    00:00 +19°C° 0,1 mm 5 m/s 759 mmHg 74%
    01:00 +19°C° 0,1 mm 5 m/s 759 mmHg 75%
    02:00 +19°C° 0,1 mm 5 m/s 759 mmHg 76%
    03:00 +19°C° 0,1 mm 5 m/s 759 mmHg 76%
    04:00 +18°C° 0,1 mm 4 m/s 758 mmHg 76%
    05:00 +18°C° 0,1 mm 4 m/s 758 mmHg 75%
    06:00 +19°C° 0,1 mm 4 m/s 758 mmHg 74%
    07:00 +19°C° 0,1 mm 4 m/s 758 mmHg 72%
    08:00 +19°C° 0,1 mm 4 m/s 758 mmHg 70%
    09:00 +20°C° 0 mm 4 m/s 758 mmHg 66%
    10:00 +21°C° 0 mm 3 m/s 758 mmHg 62%
    11:00 +22°C° 0 mm 3 m/s 758 mmHg 58%
    12:00 +22°C° 0 mm 3 m/s 758 mmHg 56%
    13:00 +22°C° 0 mm 3 m/s 757 mmHg 55%
    14:00 +22°C° 0 mm 3 m/s 757 mmHg 54%
    15:00 +22°C° 0 mm 3 m/s 757 mmHg 55%
    16:00 +22°C° 0 mm 3 m/s 756 mmHg 56%
    17:00 +21°C° 0 mm 3 m/s 756 mmHg 57%
    18:00 +21°C° 0 mm 3 m/s 756 mmHg 60%
    19:00 +20°C° 0 mm 3 m/s 756 mmHg 62%
    20:00 +19°C° 0 mm 3 m/s 756 mmHg 65%
    21:00 +19°C° 0 mm 3 m/s 756 mmHg 66%
    22:00 +19°C° 0 mm 2 m/s 755 mmHg 67%
    23:00 +19°C° 0 mm 2 m/s 755 mmHg 68%

    28 Octobre, Samedi

    Heure Température Précipitation Vent Pression Humidité
    00:00 +18°C° 0 mm 2 m/s 755 mmHg 70%
    01:00 +18°C° 0 mm 2 m/s 754 mmHg 71%
    02:00 +18°C° 0 mm 2 m/s 754 mmHg 73%
    03:00 +18°C° 0 mm 3 m/s 754 mmHg 73%
    04:00 +18°C° 0 mm 3 m/s 753 mmHg 72%
    05:00 +18°C° 0 mm 3 m/s 753 mmHg 72%
    06:00 +18°C° 0 mm 3 m/s 753 mmHg 70%
    07:00 +19°C° 0 mm 4 m/s 753 mmHg 69%
    08:00 +20°C° 0 mm 4 m/s 753 mmHg 67%
    09:00 +21°C° 0 mm 4 m/s 753 mmHg 66%
    10:00 +22°C° 0 mm 4 m/s 753 mmHg 64%
    11:00 +23°C° 0 mm 4 m/s 753 mmHg 62%
    12:00 +23°C° 0 mm 4 m/s 752 mmHg 62%
    13:00 +23°C° 0 mm 4 m/s 752 mmHg 61%
    14:00 +23°C° 0 mm 4 m/s 751 mmHg 61%
    15:00 +23°C° 0 mm 4 m/s 751 mmHg 64%
    16:00 +22°C° 0 mm 4 m/s 751 mmHg 67%
    17:00 +22°C° 0 mm 4 m/s 751 mmHg 71%
    18:00 +22°C° 0 mm 4 m/s 751 mmHg 73%
    19:00 +21°C° 0 mm 4 m/s 751 mmHg 75%
    20:00 +21°C° 0 mm 4 m/s 751 mmHg 77%
    21:00 +21°C° 0 mm 5 m/s 751 mmHg 77%
    22:00 +21°C° 0 mm 5 m/s 751 mmHg 78%
    23:00 +21°C° 0 mm 5 m/s 751 mmHg 78%

    29 Octobre, Dimanche

    Heure Température Précipitation Vent Pression Humidité
    00:00 +20°C° 0 mm 6 m/s 751 mmHg 79%
    01:00 +20°C° 0 mm 6 m/s 751 mmHg 79%
    02:00 +20°C° 0 mm 6 m/s 750 mmHg 80%
    03:00 +20°C° 0 mm 7 m/s 750 mmHg 80%
    04:00 +20°C° 0 mm 7 m/s 750 mmHg 80%
    05:00 +20°C° 0 mm 7 m/s 750 mmHg 80%
    06:00 +21°C° 0,1 mm 7 m/s 750 mmHg 79%
    07:00 +21°C° 0,1 mm 8 m/s 750 mmHg 78%
    08:00 +21°C° 0,1 mm 8 m/s 750 mmHg 77%
    09:00 +22°C° 0,1 mm 8 m/s 750 mmHg 74%
    10:00 +23°C° 0,1 mm 8 m/s 750 mmHg 71%
    11:00 +23°C° 0,1 mm 8 m/s 750 mmHg 67%
    12:00 +23°C° 0,2 mm 8 m/s 749 mmHg 68%
    13:00 +23°C° 0,2 mm 8 m/s 749 mmHg 69%
    14:00 +23°C° 0,2 mm 8 m/s 749 mmHg 69%
    15:00 +22°C° 0,4 mm 8 m/s 748 mmHg 73%
    16:00 +22°C° 0,4 mm 8 m/s 748 mmHg 76%
    17:00 +21°C° 0,4 mm 8 m/s 748 mmHg 80%
    18:00 +21°C° 0,4 mm 8 m/s 748 mmHg 79%
    19:00 +21°C° 0,4 mm 8 m/s 748 mmHg 78%
    20:00 +21°C° 0,4 mm 8 m/s 748 mmHg 77%
    21:00 +21°C° 0,3 mm 9 m/s 748 mmHg 77%
    22:00 +21°C° 0,3 mm 9 m/s 748 mmHg 78%
    23:00 +19°C° 0,3 mm 10 m/s 748 mmHg 79%
    Voir plus